Simultaneous Nadir Overpasses (SNOs) Predictions

Prediction of SNOs between NOAA-20 and AQUA Satellite Orbit:

Table of predicted SNOs for the next 14.0 days since TLE Epoch: 12/17/2023
Index Date (NOAA-20) Time (NOAA-20) Lat,Lon (NOAA-20) SZA (NOAA-20 ) Date (AQUA) Time (AQUA) Lat,Lon (AQUA) SZA (AQUA ) Distance(km) Time Diff (sec)
1 12/17/2023 15:31:23 -81.00, 43.21 68.05 12/17/2023 15:31:45 -81.01, 43.39 68.09 3.23 22
2 12/17/2023 16:22:04 81.05,-148.17 111.77 12/17/2023 16:21:06 81.05,-148.30 111.83 2.37 58
3 12/20/2023 04:26:50 -78.38,-177.40 63.07 12/20/2023 04:28:03 -77.88,-174.75 63.55 82.76 73
4 12/20/2023 05:16:01 81.03, 17.66 111.98 12/20/2023 05:15:56 81.03, 17.72 111.97 1.24 5
5 12/22/2023 18:09:57 81.01,-176.19 112.09 12/22/2023 18:10:45 81.02,-176.19 112.06 0.47 48
6 12/22/2023 19:00:39 -81.05, -7.98 68.04 12/22/2023 19:00:07 -81.04, -8.17 67.99 3.25 32
7 12/25/2023 07:54:35 -81.03, 158.13 67.97 12/25/2023 07:54:55 -81.03, 158.00 67.96 2.32 20
8 12/25/2023 08:45:17 81.07, -33.65 111.90 12/25/2023 08:44:16 81.07, -33.73 111.96 1.47 61
9 12/27/2023 20:48:32 -81.00, -36.16 67.89 12/27/2023 20:49:43 -81.00, -36.12 67.94 0.61 71
10 12/27/2023 21:39:14 81.03, 132.04 111.98 12/27/2023 21:39:04 81.04, 132.13 111.98 1.55 10
11 12/30/2023 10:33:10 81.01, -61.94 111.97 12/30/2023 10:33:51 81.01, -61.94 111.94 0.44 41



Historial Predications of SNOs between NOAA-20 and AQUA
